This is the latest recevied weather packets stored in our database for station/object N8WJW. If no packets are shown the sender has not sent any weather packets the latest 10 day(s).
| Time | Temp. | Humidity | Pressure | Rain* | Wind** | Luminosity | Snow |
|---|---|---|---|---|---|---|---|
| 1777682872 | 2.78° C | 93% | 1015.9 hPa | 0 mm | - | 0 W/m² | - |
| 1777682568 | 2.78° C | 93% | 1015.8 hPa | 0 mm | - | 0 W/m² | - |
| 1777682266 | 3.33° C | 93% | 1015.7 hPa | 0 mm | - | 0 W/m² | - |
| 1777681963 | 3.33° C | 93% | 1015.5 hPa | 0 mm | - | 1 W/m² | - |
| 1777681658 | 3.33° C | 92% | 1015.5 hPa | 0 mm | - | 1 W/m² | - |
| 1777681357 | 3.89° C | 92% | 1015.4 hPa | 0 mm | - | 2 W/m² | - |
| 1777681053 | 3.89° C | 92% | 1015.4 hPa | 0 mm | - | 4 W/m² | - |
| 1777680752 | 3.89° C | 92% | 1015.4 hPa | 0 mm | - | 6 W/m² | - |
| 1777680449 | 4.44° C | 92% | 1015.3 hPa | 0 mm | - | 9 W/m² | - |
| 1777680146 | 4.44° C | 91% | 1015.4 hPa | 0 mm | - | 12 W/m² | - |
| 1777679842 | 4.44° C | 91% | 1015.5 hPa | 0 mm | - | 14 W/m² | - |
| 1777679538 | 4.44° C | 91% | 1015.2 hPa | 0 mm | - | 18 W/m² | - |
| 1777679234 | 4.44° C | 90% | 1015.3 hPa | 0 mm | - | 21 W/m² | - |
| 1777678931 | 4.44° C | 89% | 1015.6 hPa | 0 mm | - | 19 W/m² | - |
| 1777678629 | 5° C | 89% | 1015.3 hPa | 0 mm | - | 18 W/m² | - |
| 1777678326 | 5° C | 88% | 1015.2 hPa | 0 mm | - | 20 W/m² | - |
| 1777678021 | 5.56° C | 87% | 1015.1 hPa | 0 mm | - | 24 W/m² | - |
| 1777677719 | 5.56° C | 87% | 1015.2 hPa | 0 mm | - | 32 W/m² | - |
| 1777677417 | 5.56° C | 86% | 1015 hPa | 0 mm | - | 37 W/m² | - |
| 1777677115 | 6.11° C | 86% | 1015.6 hPa | 0 mm | - | 35 W/m² | - |
| 1777676813 | 6.11° C | 84% | 1015 hPa | 0 mm | - | 34 W/m² | - |
| 1777676511 | 6.11° C | 85% | 1014.7 hPa | 0 mm | - | 51 W/m² | - |
| 1777676208 | 6.67° C | 87% | 1014.6 hPa | 0 mm | - | 82 W/m² | - |
| 1777675905 | 6.11° C | 86% | 1014.6 hPa | 0 mm | - | 80 W/m² | - |
| 1777675602 | 6.11° C | 86% | 1014.7 hPa | 0 mm | - | 78 W/m² | - |
* Rain latest hour (hover to see other rain measurements)
** Current wind speed in m/s (hover to see current wind gust speed)